Weather Roundup
Issued by NWS Chicago, IL

Home | Current Version | Previous Version | Text Only | Print | Product List | Glossary Off
Versions: 1 2 3 4 5 6 7 8 9 10 11 12 13 14 15 16 17 18 19 20 21 22 23 24 25 26 27 28 29 30 31 32 33 34 35 36 37 38 39 40 41 42 43 44 45 46 47 48 49 50

000
NZUS59 KLOT 161300
HRRLOT

CHICAGO AREA WEATHER ROUNDUP
NATIONAL WEATHER SERVICE CHICAGO/ROMEOVILLE IL
800 AM CDT TUE SEP 16 2014

NOTE: "FAIR" INDICATES FEW OR NO CLOUDS BELOW 12,000 FEET WITH NO
SIGNIFICANT WEATHER AND/OR OBSTRUCTIONS TO VISIBILITY.

* THESE STATIONS ARE NOT UNDER NWS QUALITY CONTROL. THEY ALSO MAY NOT
  REPORT WEATHER SUCH AS PRECIPITATION OR FOG.

ILZ005-006-012>014-019>023-161400-
NORTHEAST ILLINOIS

CITY           SKY/WX    TMP DP  RH WIND       PRES   REMARKS
OHARE          MOSUNNY   48  43  82 N7        30.21R
MIDWAY         MOSUNNY   51  46  83 NW5       30.21R
AURORA         SUNNY     45  42  89 NW3       30.23R
WAUKEGAN       SUNNY     48  43  82 NW3       30.20S
DUPAGE AIRPORT SUNNY     48  44  86 CALM      30.21S
WHEELING       SUNNY     50  44  80 NW5       30.22S
NORTHERLY IS     N/A     55  46  71 W2          N/A
$$

WIZ051-052-058>065-066-070>072-161400-
SOUTHEAST WISCONSIN

CITY           SKY/WX    TMP DP  RH WIND       PRES   REMARKS
MILWAUKEE      SUNNY     49  42  77 W6        30.20F
KENOSHA*       SUNNY     47  44  90 NW5       30.21S
RACINE*        SUNNY     47  43  86 NW6       30.22S
WAUKESHA       SUNNY     43  43 100 W3        30.21S
$$

INZ001>003-010>013-019-020-161400-
NORTHWEST INDIANA

CITY           SKY/WX    TMP DP  RH WIND       PRES   REMARKS
GARY*          MOSUNNY   52  50  93 W7        30.21R
MICHIGAN CITY* NOT AVBL
RENSSELAER*    NOT AVBL
VALPARAISO     PTSUNNY   54  49  83 S3        30.20S
$$

LMZ740>746-161400-
SOUTHERN LAKE MICHIGAN

STATION/POSITION TIME  SKY/WX   TEMP WIND        PRES    VSBY
                                AIR  DIR/SP/G
                 (UTC)          (F)  (DEG/KT/KT) (MB)    (MI)
HARRISON CRIB    1200            51  310/  9/ 10   N/A
BURNHAM HARBOR   1300            55  280/  2/  6   N/A
CALUMET HARBOR   1200            51  280/  3/  4   N/A
BURNS HARBOR     NOT AVBL
MICHIGAN CITY    1200            53  100/  4/  6   N/A
$$

ABBREVIATIONS USED IN REMARKS
   TC - TEMPERATURE IN CELSIUS
  WCI - WIND CHILL INDEX
   HX - HEAT INDEX
  VSB - VISIBILITY
$$



USA.gov is the U.S. government's official web portal to all federal, state and local government web resources and services.